Temp
74 77 82 83 83 83 83 83 83 83 83 83 83 83 83 84 84 83 83 83 83 84 84 84 84 84 83 82 82 82 82 82 82 82 82 82 82 82 83 83 83 82 82
77 80 82 83 83 83 83 83 83 83 83 83 83 83 83 83 83 83 83 83 83 84 84 84 84 84 84 83 82 81 81 81 81 82 83 83 83 82 83 83 83 82 83
78 80 81 82 83 83 83 83 83 83 84 83 83 83 83 84 84 84 83 84 84 84 84 84 84 83 83 84 84 83 82 82 82 83 81 75 78 82 83 83 82 82 82
79 79 80 82 83 83 83 83 83 83 84 83 83 83 83 83 83 84 84 84 84 84 84 84 84 84 83 83 83 84 84 84 83 82 74 75 79 82 82 83 82 82 82
78 79 80 82 83 83 83 83 83 83 83 83 83 83 84 83 84 84 84 84 84 84 84 84 84 84 83 83 83 82 83 83 83 81 73 72 72 81 83 83 82 82 82
78 79 82 83 83 83 83 83 83 83 83 83 83 84 84 84 84 84 84 84 84 84 84 84 84 84 83 83 83 83 83 83 83 75 72 73 72 80 83 83 83 82 81
77 78 81 83 83 83 83 83 83 83 83 83 84 84 84 84 84 84 84 84 84 84 84 84 84 84 83 83 83 83 82 84 78 73 73 72 72 80 81 83 83 82 82
77 78 80 82 83 83 83 83 83 83 84 84 84 84 84 84 83 83 84 84 84 84 83 84 84 84 84 83 83 83 82 83 80 74 73 72 74 79 81 81 83 82 82
78 77 79 80 82 84 83 84 83 84 84 84 84 84 83 83 83 83 83 83 83 83 83 84 84 84 84 83 83 83 83 83 75 73 75 73 77 79 82 82 82 82 82
77 77 76 77 79 79 81 83 83 83 84 84 84 84 84 84 84 83 83 82 83 83 84 84 84 83 83 83 83 83 83 83 75 74 75 73 77 79 81 82 81 82 82
76 74 74 75 74 75 76 81 83 84 84 84 83 84 83 77 77 80 81 82 83 83 84 84 84 84 83 83 83 83 83 75 75 74 73 77 78 80 81 82 82 82 82
73 73 73 73 73 73 80 77 76 78 77 77 77 76 76 75 74 79 80 83 83 84 84 84 83 83 82 75 75 81 75 75 75 75 75 78 80 81 82 82 81 82 82
75 75 74 72 73 73 77 73 73 74 74 74 74 74 74 76 75 76 75 77 77 81 78 81 78 77 77 75 74 73 73 74 74 76 79 80 80 82 82 82 82 82 82
74 75 76 75 73 72 74 74 74 74 74 73 73 73 72 73 73 73 74 75 74 76 75 75 75 75 75 75 75 74 74 75 74 75 76 81 81 82 83 82 82 82 82
75 76 76 76 75 75 73 73 73 74 75 75 74 74 73 73 72 73 75 76 78 76 74 74 73 73 73 73 74 74 74 74 75 77 78 81 81 82 82 83 82 82 82
77 77 79 77 77 77 76 74 75 76 75 75 75 76 75 75 75 73 74 77 79 79 79 76 74 73 73 72 73 73 74 75 75 76 76 79 82 81 82 83 82 82 82
79 80 79 78 79 77 77 76 76 77 77 76 77 77 76 76 75 75 75 75 77 77 76 74 74 73 71 72 73 73 73 74 74 76 77 76 80 81 82 82 82 82 82
81 80 80 84 80 78 78 78 78 77 77 78 78 78 77 77 76 75 76 75 77 75 75 75 74 72 72 71 71 72 73 72 74 75 76 77 76 80 81 82 81 81 81
82 81 80 81 80 79 78 78 78 78 77 78 77 77 77 78 77 77 77 77 75 74 74 75 74 73 70 70 71 70 71 71 73 77 74 75 75 77 78 80 81 81 81
81 81 81 81 80 80 78 77 75 74 75 74 75 77 78 78 78 76 77 75 74 73 72 72 73 72 71 71 74 75 70 71 70 69 72 75 73 75 75 75 78 80 81
81 79 80 78 78 78 73 73 70 75 73 73 75 76 76 77 78 76 77 75 73 73 75 72 72 71 70 71 69 68 69 69 68 68 69 69 72 73 73 74 75 78 78
80 79 78 79 78 77 80 79 74 73 73 76 75 75 76 76 77 78 78 78 77 75 72 71 71 70 70 69 68 65 64 68 68 72 69 71 70 71 73 74 73 74 75
81 80 79 79 80 80 79 73 71 72 71 71 72 74 77 76 76 77 77 78 74 73 72 71 69 69 75 71 69 67 62 62 64 68 71 71 70 69 70 71 72 73 74
83 84 83 81 80 80 78 77 77 78 76 78 76 78 78 77 77 77 78 76 75 73 73 74 72 72 69 72 68 71 69 70 64 64 68 69 68 69 69 70 71 73 72
86 84 84 82 81 82 80 80 78 77 79 76 74 73 75 77 77 77 76 76 75 74 72 72 72 72 70 70 66 66 67 66 65 65 68 66 67 70 70 70 71 71 71
86 86 84 81 81 82 79 78 78 78 78 74 73 74 76 77 77 76 76 75 73 73 72 71 72 71 71 70 70 69 68 66 65 65 65 68 69 70 69 69 69 70 71
MSLP
1013.25 1013.30 1013.51 1013.71 1013.92 1014.22 1014.47 1014.65 1014.88 1015.18 1015.27 1015.46 1015.63 1015.84 1015.99 1016.15 1016.38 1016.44 1016.53 1016.61 1016.78 1016.80 1016.76 1016.65 1016.48 1016.48 1016.48 1016.54 1016.42 1016.48 1016.60 1016.66 1016.64 1016.64 1016.73 1016.97 1017.25 1017.49 1017.72 1017.92 1017.99 1018.22 1018.39
1012.65 1013.19 1013.49 1013.78 1014.04 1014.28 1014.59 1014.80 1015.11 1015.39 1015.48 1015.68 1015.78 1015.97 1016.07 1016.25 1016.50 1016.62 1016.68 1016.68 1016.76 1016.87 1016.89 1016.82 1016.72 1016.75 1016.75 1016.70 1016.75 1016.80 1016.86 1016.87 1016.92 1016.98 1017.01 1017.05 1017.32 1017.60 1017.80 1018.07 1018.28 1018.32 1018.52
1012.77 1013.26 1013.58 1013.92 1014.14 1014.28 1014.80 1015.01 1015.26 1015.53 1015.74 1015.89 1015.92 1016.11 1016.14 1016.27 1016.49 1016.58 1016.64 1016.70 1016.72 1016.86 1017.05 1017.01 1016.99 1016.99 1016.94 1016.93 1016.94 1017.00 1016.97 1016.98 1017.07 1017.12 1017.27 1017.56 1017.56 1017.83 1017.99 1018.20 1018.40 1018.52 1018.66
1012.68 1013.24 1013.66 1013.89 1014.12 1014.48 1014.86 1015.18 1015.34 1015.59 1015.92 1016.03 1016.10 1016.33 1016.35 1016.46 1016.58 1016.60 1016.61 1016.73 1016.82 1016.87 1016.98 1017.08 1017.12 1017.16 1017.17 1017.18 1017.20 1017.11 1017.10 1017.21 1017.40 1017.59 1017.76 1017.78 1017.78 1017.83 1018.14 1018.29 1018.51 1018.75 1018.92
1012.86 1013.29 1013.60 1013.86 1014.18 1014.56 1014.91 1015.20 1015.36 1015.59 1015.94 1016.04 1016.17 1016.40 1016.54 1016.63 1016.62 1016.63 1016.68 1016.84 1016.95 1016.88 1016.94 1016.98 1017.09 1017.23 1017.32 1017.32 1017.25 1017.29 1017.39 1017.40 1017.41 1017.74 1018.17 1018.19 1018.12 1018.03 1018.00 1018.36 1018.72 1018.95 1019.08
1012.89 1013.27 1013.41 1013.79 1014.16 1014.52 1014.84 1015.16 1015.44 1015.69 1015.94 1016.07 1016.20 1016.36 1016.54 1016.69 1016.82 1016.83 1016.72 1016.78 1016.97 1017.04 1017.00 1017.03 1017.12 1017.20 1017.36 1017.35 1017.39 1017.38 1017.45 1017.50 1017.70 1018.10 1018.28 1018.42 1018.52 1018.30 1018.29 1018.53 1018.79 1018.95 1019.16
1013.07 1013.29 1013.50 1013.82 1014.13 1014.48 1014.70 1015.00 1015.31 1015.57 1015.80 1015.95 1016.11 1016.32 1016.52 1016.68 1016.86 1016.92 1016.82 1016.82 1016.91 1017.00 1017.04 1017.04 1017.03 1017.14 1017.27 1017.32 1017.37 1017.46 1017.55 1017.51 1017.72 1018.09 1018.25 1018.49 1018.62 1018.51 1018.55 1018.58 1018.77 1018.99 1019.25
1012.90 1013.17 1013.44 1013.66 1013.96 1014.22 1014.52 1014.92 1015.28 1015.52 1015.75 1015.87 1016.00 1016.24 1016.50 1016.72 1016.86 1016.92 1016.89 1016.91 1016.95 1017.02 1017.04 1017.02 1016.97 1016.98 1017.16 1017.30 1017.34 1017.36 1017.49 1017.52 1017.52 1018.05 1018.23 1018.47 1018.60 1018.62 1018.56 1018.62 1018.69 1018.88 1019.20
1013.02 1013.28 1013.50 1013.81 1014.14 1014.48 1014.84 1015.15 1015.39 1015.58 1015.80 1015.90 1015.98 1016.23 1016.48 1016.66 1016.75 1016.77 1016.87 1016.88 1016.98 1017.09 1017.10 1017.11 1017.06 1017.00 1017.02 1017.12 1017.20 1017.31 1017.42 1017.45 1017.62 1017.91 1018.07 1018.28 1018.36 1018.46 1018.47 1018.55 1018.65 1018.84 1019.08
1013.52 1013.51 1013.61 1013.84 1014.08 1014.39 1014.69 1014.96 1015.26 1015.50 1015.71 1015.83 1016.07 1016.34 1016.48 1016.56 1016.58 1016.64 1016.74 1016.80 1016.95 1017.10 1017.08 1017.05 1017.00 1016.92 1016.94 1016.91 1017.00 1017.16 1017.22 1017.20 1017.30 1017.41 1017.61 1017.83 1017.90 1018.09 1018.21 1018.20 1018.47 1018.71 1019.03
1013.80 1013.93 1013.93 1014.07 1014.28 1014.62 1014.90 1015.01 1015.22 1015.41 1015.58 1015.72 1015.88 1016.10 1016.30 1016.54 1016.63 1016.62 1016.64 1016.76 1016.85 1016.97 1016.98 1016.92 1016.81 1016.78 1016.86 1016.84 1016.89 1016.95 1017.00 1017.22 1017.19 1017.12 1017.17 1017.24 1017.42 1017.50 1017.75 1017.95 1018.33 1018.56 1018.85
1013.73 1013.92 1014.10 1014.23 1014.54 1014.85 1015.01 1015.22 1015.38 1015.50 1015.53 1015.64 1015.79 1015.94 1016.06 1016.37 1016.62 1016.59 1016.62 1016.59 1016.66 1016.72 1016.68 1016.62 1016.77 1016.72 1016.93 1017.00 1017.10 1016.87 1017.10 1017.20 1017.18 1017.14 1016.97 1016.91 1017.04 1017.16 1017.35 1017.74 1018.25 1018.46 1018.70
1013.12 1013.74 1013.93 1014.31 1014.52 1014.80 1014.89 1015.19 1015.43 1015.52 1015.58 1015.70 1015.79 1015.88 1016.06 1016.17 1016.30 1016.38 1016.48 1016.56 1016.63 1016.53 1016.53 1016.43 1016.41 1016.58 1016.65 1016.83 1016.96 1017.06 1017.10 1017.10 1017.13 1017.00 1016.88 1016.80 1016.87 1017.06 1017.30 1017.70 1017.98 1018.32 1018.54
1013.02 1013.39 1013.83 1014.06 1014.30 1014.56 1014.71 1014.80 1015.00 1015.19 1015.42 1015.57 1015.62 1015.77 1016.03 1016.19 1016.22 1016.19 1016.17 1016.22 1016.45 1016.36 1016.49 1016.39 1016.34 1016.37 1016.56 1016.64 1016.72 1016.79 1016.78 1016.79 1016.78 1016.71 1016.58 1016.69 1016.72 1016.88 1017.14 1017.38 1017.64 1017.97 1018.28
1012.70 1012.98 1013.30 1013.71 1013.94 1014.15 1014.53 1014.54 1014.71 1014.89 1015.05 1015.17 1015.32 1015.42 1015.70 1015.93 1016.11 1016.04 1015.96 1015.88 1015.79 1015.94 1016.10 1016.19 1016.14 1016.13 1016.17 1016.43 1016.49 1016.55 1016.59 1016.44 1016.30 1016.27 1016.25 1016.30 1016.32 1016.50 1016.83 1017.01 1017.32 1017.61 1017.84
1011.99 1012.28 1012.58 1012.98 1013.29 1013.58 1013.98 1014.11 1014.26 1014.49 1014.68 1014.93 1015.10 1015.15 1015.38 1015.56 1015.64 1015.82 1015.92 1015.74 1015.43 1015.38 1015.38 1015.67 1015.70 1015.92 1016.02 1016.43 1016.48 1016.46 1016.27 1016.13 1015.93 1015.93 1015.92 1015.82 1015.79 1015.95 1016.37 1016.76 1017.02 1017.22 1017.38
1010.96 1011.51 1011.88 1012.30 1012.72 1013.06 1013.40 1013.69 1013.85 1013.97 1014.31 1014.52 1014.55 1014.73 1014.90 1015.16 1015.34 1015.33 1015.44 1015.66 1015.38 1015.30 1015.25 1015.40 1015.50 1015.78 1016.10 1016.18 1016.52 1016.32 1016.31 1015.97 1015.57 1015.50 1015.52 1015.53 1015.62 1015.77 1015.96 1016.28 1016.54 1016.70 1016.92
1010.44 1010.94 1011.32 1011.70 1012.18 1012.54 1012.81 1013.04 1013.17 1013.40 1013.55 1013.68 1013.85 1014.04 1014.28 1014.53 1014.76 1015.10 1015.19 1015.06 1014.86 1015.11 1015.18 1015.34 1015.52 1015.82 1015.98 1016.08 1016.20 1016.08 1016.05 1015.90 1015.44 1015.22 1015.32 1015.38 1015.47 1015.67 1015.78 1015.97 1016.10 1016.23 1016.54
1009.64 1010.12 1010.70 1011.12 1011.45 1011.85 1012.19 1012.41 1012.55 1012.74 1013.12 1013.08 1013.20 1013.33 1013.52 1013.82 1014.14 1014.39 1014.48 1014.36 1014.41 1014.64 1014.98 1015.19 1015.37 1015.51 1015.90 1015.95 1015.95 1015.80 1015.74 1015.42 1015.35 1015.10 1015.11 1015.28 1015.31 1015.38 1015.42 1015.42 1015.70 1015.94 1016.08
1009.12 1009.46 1009.92 1010.43 1010.84 1011.33 1011.90 1012.24 1012.49 1012.72 1012.70 1012.64 1012.66 1012.76 1012.48 1012.82 1013.20 1013.86 1014.02 1014.10 1014.30 1014.68 1014.84 1015.02 1015.16 1015.28 1015.46 1015.52 1015.57 1015.46 1015.46 1015.38 1015.18 1015.31 1015.14 1015.09 1015.19 1015.21 1015.27 1015.36 1015.27 1015.38 1015.51
1008.67 1009.17 1009.52 1009.92 1010.18 1010.81 1011.47 1011.98 1012.11 1012.07 1012.14 1012.44 1012.42 1012.19 1012.34 1012.48 1012.67 1013.01 1013.58 1013.86 1013.94 1014.38 1014.37 1014.56 1014.71 1014.92 1015.04 1015.35 1015.80 1015.63 1015.17 1014.82 1015.10 1015.07 1015.13 1015.12 1014.91 1014.80 1015.00 1015.06 1014.98 1014.92 1014.90
1008.14 1008.63 1009.12 1009.26 1009.70 1010.12 1010.34 1010.50 1011.01 1011.14 1011.15 1011.11 1011.28 1011.52 1011.66 1011.88 1012.16 1012.34 1012.64 1013.05 1013.34 1013.73 1013.88 1014.08 1014.37 1014.49 1014.45 1014.66 1015.28 1015.59 1015.44 1015.01 1014.72 1014.50 1014.62 1014.66 1014.53 1014.48 1014.49 1014.42 1014.48 1014.41 1014.31
1007.85 1008.04 1008.34 1008.63 1008.91 1009.32 1009.66 1010.33 1010.52 1010.56 1010.59 1010.52 1010.46 1010.35 1010.48 1010.70 1010.98 1011.28 1011.49 1011.96 1012.36 1012.90 1013.20 1013.44 1013.88 1014.26 1014.08 1014.05 1014.20 1014.60 1015.09 1014.89 1014.61 1013.94 1013.72 1013.80 1014.00 1014.10 1013.95 1013.87 1013.83 1013.78 1013.74
1006.78 1007.29 1007.39 1007.60 1007.73 1008.04 1008.50 1008.90 1009.48 1009.93 1010.23 1010.17 1010.29 1010.37 1010.34 1010.18 1010.16 1010.15 1010.48 1011.08 1011.41 1011.68 1012.12 1012.39 1012.64 1012.97 1013.51 1013.62 1014.00 1013.96 1013.71 1013.62 1014.19 1014.15 1013.53 1013.30 1013.29 1013.49 1013.44 1013.32 1013.22 1013.20 1013.28
1006.13 1006.26 1006.54 1006.77 1007.07 1007.20 1007.69 1008.13 1008.75 1009.09 1009.05 1009.23 1009.65 1009.82 1009.92 1010.15 1010.40 1010.01 1010.04 1010.24 1010.48 1010.96 1011.12 1011.56 1011.91 1012.08 1012.39 1012.69 1013.12 1013.38 1013.54 1013.54 1013.58 1013.89 1013.34 1013.15 1013.17 1012.68 1012.62 1012.55 1012.56 1012.60 1012.73
1005.60 1005.89 1006.12 1006.40 1006.46 1006.82 1007.36 1007.87 1008.31 1008.31 1008.60 1008.81 1009.08 1009.44 1009.76 1009.98 1009.88 1010.30 1010.34 1009.94 1009.60 1009.57 1009.93 1010.22 1010.92 1011.44 1011.84 1011.86 1011.76 1012.10 1012.69 1013.07 1012.95 1013.02 1012.98 1012.44 1012.29 1011.91 1011.72 1011.81 1011.88 1012.06 1012.10
Wind_Speed
8 7 16 18 20 19 18 19 19 18 19 18 17 16 17 17 15 13 12 11 10 10 9 9 7 5 5 5 3 4 4 5 7 9 9 11 11 11 10 10 11 8 10
13 10 17 18 20 20 19 18 17 17 18 18 17 15 16 15 14 12 10 10 9 9 9 9 7 4 3 4 4 1 2 4 4 5 6 9 9 9 8 6 7 7 9
15 12 14 18 18 20 19 18 17 16 17 17 16 15 14 14 12 12 12 11 9 8 9 9 8 6 4 3 4 4 4 3 2 4 6 4 5 7 8 7 5 7 8
14 12 12 18 18 18 18 17 16 16 16 16 15 14 13 12 11 11 10 10 8 7 7 9 10 9 7 6 6 6 5 6 6 6 3 4 2 7 7 4 6 6 8
13 11 13 19 19 19 18 17 16 15 15 15 15 13 12 11 10 10 10 9 9 7 7 7 7 8 8 8 9 8 8 8 8 5 2 2 1 3 9 11 8 8 7
13 11 16 19 20 19 19 17 16 15 14 13 13 12 11 11 11 10 10 10 9 9 8 8 8 8 8 8 8 9 9 10 10 4 3 3 1 5 11 11 10 9 9
11 9 13 18 19 18 18 17 16 16 15 14 13 12 11 11 11 10 10 10 10 10 9 9 8 8 9 8 8 9 9 12 6 4 4 4 5 9 8 12 11 10 9
12 10 12 19 19 19 19 18 17 16 16 14 13 12 11 11 10 10 10 11 11 11 10 9 9 9 9 10 9 9 9 10 9 7 6 5 10 13 12 9 12 11 10
11 10 10 11 14 18 18 18 17 16 15 14 13 12 11 11 10 11 11 11 11 11 10 11 10 10 10 10 10 9 9 10 4 4 6 4 14 17 14 11 9 13 12
8 9 8 8 10 10 11 18 17 16 15 14 12 12 11 11 11 11 11 11 12 12 12 12 12 12 11 11 11 10 9 10 5 5 5 5 15 16 17 13 11 13 13
7 5 5 6 5 5 6 10 14 17 15 14 13 13 10 4 5 7 7 10 11 12 12 13 14 13 13 14 11 10 9 2 4 3 2 8 16 16 16 15 14 14 15
11 8 6 5 5 5 6 5 5 6 4 5 5 6 4 5 4 6 8 11 12 12 13 14 14 14 9 3 3 8 2 4 3 3 3 9 11 11 12 13 15 16 16
13 9 10 6 6 7 6 4 2 3 3 3 6 5 4 4 4 4 3 3 3 10 4 7 5 4 4 4 4 3 4 3 3 3 5 12 14 13 14 15 15 16 17
12 12 9 9 7 7 5 5 4 4 4 4 5 6 4 3 4 4 3 5 4 4 4 4 3 4 5 4 3 4 5 4 3 3 6 13 14 17 18 17 17 17 17
11 12 12 11 10 9 8 4 4 6 5 6 5 5 5 4 4 3 5 5 6 5 5 5 5 5 5 4 4 4 5 6 6 4 4 15 17 16 17 18 18 18 18
12 14 14 15 12 11 10 8 7 5 6 5 5 7 8 6 6 4 5 6 6 6 5 5 7 5 5 2 5 4 5 5 5 5 4 7 16 18 17 18 19 19 19
14 13 15 15 13 13 12 9 7 7 6 6 7 8 8 9 7 6 5 4 6 5 6 4 5 3 4 4 6 5 4 6 5 5 4 4 6 16 18 18 19 20 20
13 15 14 13 14 13 12 9 8 7 7 8 7 7 10 10 9 7 6 6 7 5 5 5 4 4 5 5 5 6 4 5 6 6 4 4 4 6 13 18 20 21 21
16 14 14 14 14 15 12 9 9 9 8 8 6 7 9 10 10 8 7 7 5 4 4 5 4 4 4 4 6 5 6 6 7 5 5 6 6 7 6 13 20 20 21
14 15 15 13 13 14 9 7 5 5 5 4 6 8 10 9 10 8 7 7 5 4 4 3 5 3 3 5 6 6 5 6 3 4 5 4 4 7 6 7 8 11 22
12 13 15 14 13 10 6 5 3 8 6 6 7 7 7 7 9 8 7 5 5 6 8 7 5 6 3 3 3 3 3 4 5 4 4 4 6 6 6 8 7 7 9
13 14 12 15 13 12 10 9 5 5 5 6 6 8 9 9 9 9 10 9 8 7 6 6 5 3 3 5 4 2 2 4 3 8 6 7 9 5 8 9 9 10 9
10 13 13 15 14 13 14 4 2 1 2 3 4 5 9 11 11 11 10 10 8 6 7 8 5 7 8 4 7 5 1 6 1 2 7 7 8 7 6 7 9 9 10
16 12 15 15 17 16 14 11 12 10 8 6 4 6 6 8 11 12 13 11 11 8 10 10 8 9 6 9 2 7 4 3 5 3 3 4 6 8 9 8 8 8 8
15 16 16 16 15 16 14 15 11 11 9 5 4 6 7 7 8 9 10 11 12 8 9 10 7 9 8 7 5 3 4 4 3 6 9 5 2 6 7 9 8 7 8
12 13 13 14 16 15 13 14 14 16 13 6 6 7 7 6 7 8 9 10 10 10 10 9 10 8 9 8 7 7 8 6 4 5 8 8 8 5 6 8 8 9 8
Wind_Direction
165 165 148 146 143 140 137 134 129 128 124 122 125 125 126 130 136 139 137 134 129 122 119 112 98 93 103 107 51 37 38 39 38 41 56 73 80 83 89 86 94 100 104
146 156 151 147 148 143 144 140 137 133 128 129 130 131 132 135 141 144 144 143 141 131 131 130 130 126 128 151 165 185 348 5 21 35 85 95 95 101 97 85 98 109 114
146 153 153 151 149 146 149 146 143 139 138 139 134 139 137 138 143 149 154 155 154 150 144 147 146 152 171 189 200 207 221 233 232 129 101 74 114 122 125 110 123 120 117
146 152 157 154 150 152 153 152 150 147 150 146 142 145 140 140 145 148 153 159 165 165 162 156 158 160 172 191 212 217 210 198 183 160 111 132 154 147 180 162 146 141 135
148 154 163 158 153 157 160 159 157 156 161 153 150 156 156 163 169 164 165 168 181 182 185 181 178 167 174 185 191 206 210 209 198 161 155 163 132 165 169 165 167 154 151
148 157 165 163 159 163 164 164 167 166 169 164 164 170 175 183 183 180 183 187 188 195 200 198 192 180 179 186 193 194 204 208 204 147 173 208 254 176 159 172 170 164 163
148 155 159 167 165 167 168 173 177 176 179 178 173 175 181 188 189 190 196 205 207 205 206 207 209 198 185 192 193 196 203 204 177 170 185 186 195 195 175 178 180 176 177
149 153 164 169 171 171 173 178 183 182 182 183 179 181 185 187 195 200 213 222 220 222 215 212 212 209 203 198 204 200 207 212 198 178 191 192 207 204 186 195 185 178 186
156 156 164 170 174 174 177 183 186 188 189 186 184 190 194 197 204 212 219 231 232 230 218 218 216 216 222 219 211 220 219 222 216 176 190 199 211 207 199 196 216 193 191
163 168 163 163 173 177 183 186 189 192 193 189 193 201 204 210 214 216 215 226 226 222 220 215 217 220 221 232 231 222 233 237 215 224 191 189 202 210 216 204 213 202 199
171 180 176 174 168 166 174 190 190 193 195 196 201 207 211 207 223 223 214 221 224 222 223 226 221 220 223 230 232 235 236 226 236 251 251 224 204 203 208 207 214 208 206
186 190 178 174 171 158 183 199 183 202 197 194 200 209 196 203 210 221 225 221 224 225 230 231 230 236 227 221 246 242 274 244 239 247 238 250 250 227 205 204 219 212 208
185 190 186 171 173 179 195 180 186 198 195 206 209 206 210 202 211 221 219 237 214 237 230 247 245 246 224 217 225 221 225 237 245 227 238 232 232 233 217 218 225 212 211
188 193 185 181 176 188 200 190 188 190 197 209 214 212 202 213 212 216 215 222 216 225 223 238 243 252 252 262 237 222 207 210 222 233 240 237 227 226 220 219 217 212 214
189 190 192 185 187 193 205 187 189 202 202 212 211 208 196 211 219 214 224 227 225 209 206 221 236 241 239 239 241 226 218 224 220 225 230 231 231 220 216 219 215 213 213
195 197 185 191 192 191 204 195 201 205 204 200 213 222 208 212 222 213 216 228 233 220 215 209 230 229 247 201 254 241 228 237 245 242 223 225 218 201 210 218 219 216 217
199 192 191 191 192 193 203 205 200 210 199 207 214 215 212 210 221 219 218 225 226 218 222 206 230 215 229 214 248 226 242 228 238 258 213 203 217 207 207 213 219 220 220
190 192 192 192 194 197 201 202 206 202 203 212 211 206 209 212 212 217 225 230 226 207 211 217 216 206 230 218 231 241 224 239 249 242 240 214 190 215 224 221 223 221 223
196 191 192 193 193 201 205 206 209 208 206 217 213 206 205 207 209 211 221 226 211 203 200 218 215 196 194 226 236 244 246 221 231 250 234 219 206 212 216 226 229 228 225
185 192 193 193 195 195 204 213 212 206 208 207 209 213 203 207 205 202 222 230 205 205 222 233 232 207 193 209 230 243 243 250 209 219 234 238 227 229 217 224 224 229 227
179 182 193 187 195 180 181 190 205 212 200 205 216 214 212 210 213 203 219 230 213 212 225 199 198 215 252 180 165 247 270 255 242 223 210 232 244 228 212 222 225 226 234
185 189 190 200 190 193 198 199 195 181 209 205 193 198 204 205 212 210 213 223 219 221 233 214 190 208 222 176 177 111 288 303 260 239 208 219 230 218 226 221 221 222 222
198 194 194 199 199 203 206 183 164 141 258 185 206 205 204 194 203 207 209 216 218 207 224 229 207 210 245 213 202 168 163 230 271 248 238 213 215 214 222 222 222 221 219
210 203 207 201 202 204 195 193 202 217 226 230 231 235 235 211 205 202 208 209 209 206 211 218 206 218 201 239 192 243 257 165 193 290 252 244 213 216 214 216 218 222 211
207 207 205 209 211 213 201 207 209 219 220 209 206 218 223 236 239 223 209 208 214 212 219 223 216 205 204 215 203 232 237 251 212 211 260 257 266 232 212 215 210 217 212
216 212 213 210 218 214 209 210 211 217 221 205 207 211 230 243 242 243 238 223 216 208 208 204 217 218 216 223 209 206 226 230 211 206 237 240 232 231 209 210 206 215 214